| time (UTC) | temp F | wind direction | speed MPH | gust MPH | rain 1hr in | rain 24hr in | rain mn in | humidity % | barometer mb |
| 20260508044026 | 49 | 0 | 0.0 | 0.0 | 0.00 | 0.13 | 0.13 | 89 | 1015.0 |
| 20260508043526 | 49 | 0 | 0.0 | 2.0 | 0.00 | 0.13 | 0.13 | 89 | 1015.1 |
| 20260508043038 | 50 | 0 | 0.0 | 3.0 | 0.00 | 0.13 | 0.13 | 89 | 1015.1 |
| 20260508042527 | 50 | 243 | 1.0 | 4.0 | 0.00 | 0.13 | 0.13 | 89 | 1015.2 |
| 20260508042027 | 50 | 237 | 1.0 | 5.0 | 0.00 | 0.13 | 0.13 | 89 | 1015.2 |
| 20260508041548 | 50 | 234 | 1.0 | 5.0 | 0.00 | 0.13 | 0.13 | 89 | 1015.2 |
| 20260508041028 | 50 | 235 | 1.0 | 7.0 | 0.00 | 0.13 | 0.13 | 89 | 1015.2 |
| 20260508040528 | 50 | 220 | 2.0 | 7.0 | 0.01 | 0.13 | 0.13 | 89 | 1015.1 |
| 20260508040039 | 50 | 197 | 4.0 | 7.0 | 0.01 | 0.13 | 0.13 | 88 | 1014.8 |
| 20260508035527 | 50 | 212 | 2.0 | 3.0 | 0.01 | 0.13 | 0.13 | 89 | 1014.9 |
| 20260508035028 | 50 | 215 | 0.0 | 3.0 | 0.01 | 0.13 | 0.13 | 89 | 1015.0 |
| 20260508034540 | 50 | 0 | 0.0 | 2.0 | 0.01 | 0.13 | 0.13 | 89 | 1015.1 |
| 20260508034028 | 50 | 0 | 0.0 | 2.0 | 0.01 | 0.13 | 0.13 | 89 | 1015.2 |
| 20260508033527 | 50 | 0 | 0.0 | 0.0 | 0.01 | 0.13 | 0.13 | 88 | 1015.3 |
| 20260508033039 | 50 | 0 | 0.0 | 0.0 | 0.01 | 0.13 | 0.13 | 87 | 1015.2 |
| 20260508032529 | 50 | 0 | 0.0 | 1.0 | 0.01 | 0.13 | 0.13 | 87 | 1015.1 |
| 20260508032027 | 50 | 0 | 0.0 | 3.0 | 0.01 | 0.13 | 0.13 | 87 | 1014.9 |
| 20260508031553 | 51 | 0 | 0.0 | 3.0 | 0.01 | 0.13 | 0.13 | 87 | 1014.6 |
| 20260508031027 | 50 | 184 | 1.0 | 3.0 | 0.01 | 0.13 | 0.13 | 87 | 1014.9 |
| 20260508030527 | 50 | 252 | 1.0 | 4.0 | 0.00 | 0.12 | 0.12 | 86 | 1015.1 |
| 20260508030046 | 50 | 0 | 0.0 | 4.0 | 0.00 | 0.12 | 0.12 | 86 | 1015.0 |
| 20260508025526 | 50 | 247 | 2.0 | 4.0 | 0.00 | 0.12 | 0.12 | 86 | 1014.9 |
| 20260508025026 | 50 | 245 | 0.0 | 2.0 | 0.00 | 0.12 | 0.12 | 86 | 1014.7 |
| 20260508024536 | 51 | 0 | 0.0 | 0.0 | 0.00 | 0.12 | 0.12 | 86 | 1014.5 |
| 20260508024027 | 51 | 0 | 0.0 | 0.0 | 0.00 | 0.12 | 0.12 | 85 | 1014.5 |
| 20260508023527 | 51 | 0 | 0.0 | 2.0 | 0.00 | 0.12 | 0.12 | 84 | 1014.2 |
| 20260508023042 | 51 | 0 | 0.0 | 3.0 | 0.00 | 0.12 | 0.12 | 84 | 1014.3 |
| 20260508022526 | 51 | 330 | 0.0 | 5.0 | 0.00 | 0.12 | 0.12 | 84 | 1014.2 |
| 20260508022026 | 51 | 345 | 2.0 | 5.0 | 0.00 | 0.12 | 0.12 | 84 | 1014.0 |
| 20260508021542 | 51 | 39 | 2.0 | 4.0 | 0.00 | 0.12 | 0.12 | 84 | 1013.7 |
| 20260508021027 | 51 | 39 | 2.0 | 5.0 | 0.00 | 0.12 | 0.12 | 84 | 1013.5 |
| 20260508020526 | 51 | 0 | 1.0 | 5.0 | 0.00 | 0.12 | 0.12 | 84 | 1014.1 |
| 20260508020037 | 51 | 250 | 1.0 | 4.0 | 0.01 | 0.12 | 0.12 | 84 | 1014.0 |
| 20260508015527 | 51 | 233 | 0.0 | 2.0 | 0.01 | 0.12 | 0.12 | 84 | 1013.9 |
| 20260508015027 | 51 | 245 | 0.0 | 2.0 | 0.02 | 0.12 | 0.12 | 83 | 1013.8 |
| 20260508014537 | 51 | 0 | 0.0 | 1.0 | 0.03 | 0.12 | 0.12 | 83 | 1013.9 |
| 20260508014026 | 51 | 0 | 0.0 | 1.0 | 0.03 | 0.12 | 0.12 | 83 | 1013.8 |
| 20260508013526 | 52 | 0 | 0.0 | 2.0 | 0.04 | 0.12 | 0.12 | 83 | 1013.7 |
| 20260508013043 | 52 | 0 | 0.0 | 3.0 | 0.05 | 0.12 | 0.12 | 82 | 1013.5 |
| 20260508012526 | 52 | 335 | 1.0 | 3.0 | 0.05 | 0.12 | 0.12 | 81 | 1013.3 |
| 20260508012027 | 52 | 353 | 1.0 | 5.0 | 0.06 | 0.12 | 0.12 | 80 | 1013.2 |
| 20260508011536 | 52 | 348 | 1.0 | 5.0 | 0.06 | 0.12 | 0.12 | 80 | 1013.0 |
| 20260508011026 | 52 | 335 | 3.0 | 7.0 | 0.06 | 0.12 | 0.12 | 79 | 1012.9 |
| 20260508010526 | 52 | 349 | 2.0 | 7.0 | 0.05 | 0.11 | 0.11 | 78 | 1012.6 |
| 20260508010044 | 52 | 7 | 2.0 | 17.0 | 0.05 | 0.11 | 0.11 | 78 | 1012.7 |
| 20260508005526 | 53 | 359 | 6.0 | 27.0 | 0.04 | 0.10 | 0.10 | 74 | 1012.8 |
| 20260508005026 | 55 | 347 | 8.0 | 27.0 | 0.04 | 0.10 | 0.10 | 68 | 1012.2 |
| 20260508004539 | 50 | 359 | 9.0 | 18.0 | 0.03 | 0.09 | 0.09 | 78 | 1011.6 |
| 20260508004025 | 51 | 49 | 4.0 | 14.0 | 0.03 | 0.09 | 0.09 | 82 | 1013.4 |
| 20260508003531 | 51 | 340 | 7.0 | 15.0 | 0.02 | 0.08 | 0.08 | 80 | 1014.0 |
| 20260508003049 | 53 | 359 | 5.0 | 15.0 | 0.01 | 0.07 | 0.07 | 77 | 1014.1 |
| 20260508002529 | 55 | 321 | 7.0 | 15.0 | 0.01 | 0.07 | 0.07 | 73 | 1014.0 |
| 20260508002026 | 57 | 285 | 2.0 | 5.0 | 0.00 | 0.06 | 0.06 | 70 | 1013.5 |
| 20260508001537 | 57 | 249 | 2.0 | 8.0 | 0.00 | 0.06 | 0.06 | 68 | 1012.9 |
| 20260508001026 | 58 | 276 | 3.0 | 8.0 | 0.00 | 0.06 | 0.06 | 67 | 1012.8 |
| 20260508000526 | 58 | 230 | 3.0 | 8.0 | 0.00 | 0.06 | 0.06 | 65 | 1012.3 |
| 20260508000040 | 58 | 250 | 2.0 | 6.0 | 0.00 | 0.06 | 0.06 | 66 | 1012.1 |
| 20260507235527 | 58 | 237 | 2.0 | 8.0 | 0.00 | 0.06 | 0.06 | 67 | 1012.1 |
| 20260507235028 | 58 | 233 | 4.0 | 8.0 | 0.00 | 0.06 | 0.06 | 67 | 1012.0 |
| 20260507234540 | 58 | 246 | 3.0 | 7.0 | 0.00 | 0.06 | 0.06 | 67 | 1011.9 |
| 20260507234027 | 58 | 215 | 3.0 | 7.0 | 0.00 | 0.06 | 0.06 | 67 | 1012.1 |
| 20260507233526 | 58 | 210 | 2.0 | 7.0 | 0.00 | 0.06 | 0.06 | 67 | 1012.2 |
| 20260507233040 | 58 | 194 | 5.0 | 8.0 | 0.00 | 0.06 | 0.06 | 66 | 1012.1 |
| 20260507232526 | 58 | 221 | 4.0 | 8.0 | 0.00 | 0.06 | 0.06 | 66 | 1012.2 |
| 20260507232025 | 59 | 227 | 5.0 | 8.0 | 0.00 | 0.06 | 0.06 | 64 | 1012.1 |
| 20260507231545 | 59 | 214 | 5.0 | 10.0 | 0.00 | 0.06 | 0.06 | 65 | 1012.0 |
| 20260507231026 | 59 | 213 | 5.0 | 10.0 | 0.00 | 0.06 | 0.06 | 64 | 1012.2 |
| 20260507230527 | 60 | 220 | 4.0 | 9.0 | 0.00 | 0.06 | 0.06 | 62 | 1012.2 |
| 20260507230040 | 59 | 283 | 2.0 | 9.0 | 0.00 | 0.06 | 0.06 | 63 | 1012.2 |
| 20260507225527 | 58 | 243 | 2.0 | 5.0 | 0.00 | 0.06 | 0.06 | 67 | 1012.2 |
| 20260507225027 | 57 | 264 | 1.0 | 4.0 | 0.00 | 0.06 | 0.06 | 66 | 1012.4 |
| 20260507224556 | 57 | 266 | 2.0 | 6.0 | 0.00 | 0.06 | 0.06 | 66 | 1012.4 |
| 20260507224027 | 57 | 0 | 1.0 | 9.0 | 0.00 | 0.06 | 0.06 | 66 | 1012.5 |
| 20260507223527 | 58 | 329 | 4.0 | 10.0 | 0.00 | 0.06 | 0.06 | 64 | 1012.4 |
| 20260507223046 | 58 | 309 | 4.0 | 10.0 | 0.00 | 0.06 | 0.06 | 62 | 1012.4 |
| 20260507222526 | 58 | 1 | 1.0 | 7.0 | 0.00 | 0.06 | 0.06 | 66 | 1012.2 |
| 20260507222027 | 58 | 347 | 2.0 | 7.0 | 0.00 | 0.06 | 0.06 | 66 | 1012.4 |
| 20260507221539 | 58 | 359 | 1.0 | 6.0 | 0.00 | 0.06 | 0.06 | 68 | 1012.4 |
| 20260507221030 | 58 | 342 | 2.0 | 6.0 | 0.00 | 0.06 | 0.06 | 67 | 1012.4 |
| 20260507220527 | 58 | 319 | 3.0 | 6.0 | 0.00 | 0.06 | 0.06 | 68 | 1012.4 |
| 20260507220038 | 58 | 331 | 3.0 | 6.0 | 0.00 | 0.06 | 0.06 | 67 | 1012.6 |
| 20260507215527 | 59 | 315 | 1.0 | 4.0 | 0.00 | 0.06 | 0.06 | 66 | 1012.8 |
| 20260507215027 | 59 | 340 | 1.0 | 6.0 | 0.00 | 0.06 | 0.06 | 62 | 1012.9 |
| 20260507214539 | 59 | 325 | 1.0 | 7.0 | 0.00 | 0.06 | 0.06 | 61 | 1012.7 |
| 20260507214026 | 59 | 347 | 3.0 | 7.0 | 0.00 | 0.06 | 0.06 | 59 | 1012.7 |
| 20260507213529 | 59 | 336 | 2.0 | 6.0 | 0.00 | 0.06 | 0.06 | 59 | 1012.8 |
| 20260507213037 | 59 | 325 | 3.0 | 7.0 | 0.00 | 0.06 | 0.06 | 58 | 1012.8 |
| 20260507212527 | 59 | 348 | 3.0 | 9.0 | 0.00 | 0.06 | 0.06 | 60 | 1012.6 |
| 20260507212027 | 59 | 314 | 2.0 | 9.0 | 0.00 | 0.06 | 0.06 | 61 | 1012.7 |
| 20260507211539 | 59 | 33 | 4.0 | 9.0 | 0.00 | 0.06 | 0.06 | 63 | 1012.7 |
| 20260507211026 | 59 | 360 | 1.0 | 11.0 | 0.00 | 0.06 | 0.06 | 60 | 1012.6 |
| 20260507210527 | 59 | 11 | 2.0 | 13.0 | 0.00 | 0.06 | 0.06 | 59 | 1012.7 |
| 20260507210105 | 59 | 286 | 4.0 | 13.0 | 0.00 | 0.06 | 0.06 | 57 | 1012.8 |
| 20260507205527 | 59 | 330 | 6.0 | 13.0 | 0.00 | 0.06 | 0.06 | 59 | 1012.9 |
| 20260507205027 | 59 | 314 | 7.0 | 13.0 | 0.00 | 0.06 | 0.06 | 59 | 1012.9 |
| 20260507204537 | 59 | 316 | 6.0 | 15.0 | 0.00 | 0.06 | 0.06 | 60 | 1012.8 |
| 20260507204026 | 59 | 328 | 6.0 | 18.0 | 0.00 | 0.06 | 0.06 | 60 | 1013.0 |
| 20260507203527 | 60 | 1 | 9.0 | 18.0 | 0.00 | 0.06 | 0.06 | 58 | 1013.0 |
| 20260507203037 | 61 | 352 | 9.0 | 18.0 | 0.00 | 0.06 | 0.06 | 54 | 1013.0 |
| 20260507202526 | 62 | 326 | 10.0 | 18.0 | 0.00 | 0.06 | 0.06 | 56 | 1013.1 |
| 20260507202026 | 62 | 323 | 9.0 | 18.0 | 0.00 | 0.06 | 0.06 | 53 | 1012.8 |
| 20260507201537 | 62 | 354 | 8.0 | 18.0 | 0.00 | 0.06 | 0.06 | 54 | 1012.7 |
| 20260507201029 | 62 | 308 | 5.0 | 14.0 | 0.00 | 0.06 | 0.06 | 59 | 1012.4 |
| 20260507200526 | 61 | 335 | 6.0 | 14.0 | 0.00 | 0.06 | 0.06 | 65 | 1012.4 |
| 20260507200052 | 58 | 14 | 7.0 | 14.0 | 0.00 | 0.06 | 0.06 | 63 | 1012.4 |
| 20260507195527 | 58 | 338 | 4.0 | 11.0 | 0.00 | 0.06 | 0.06 | 65 | 1012.8 |
| 20260507195028 | 57 | 8 | 5.0 | 11.0 | 0.00 | 0.06 | 0.06 | 66 | 1012.9 |
| 20260507194538 | 57 | 44 | 5.0 | 10.0 | 0.00 | 0.06 | 0.06 | 67 | 1012.8 |
| 20260507194026 | 57 | 49 | 6.0 | 10.0 | 0.00 | 0.06 | 0.06 | 66 | 1013.3 |
| 20260507193528 | 57 | 32 | 5.0 | 10.0 | 0.00 | 0.06 | 0.06 | 68 | 1013.2 |
| 20260507193102 | 56 | 72 | 4.0 | 10.0 | 0.00 | 0.06 | 0.06 | 70 | 1013.1 |
| 20260507192524 | 56 | 39 | 4.0 | 9.0 | 0.00 | 0.06 | 0.06 | 69 | 1013.3 |
| 20260507192025 | 56 | 325 | 2.0 | 9.0 | 0.00 | 0.06 | 0.06 | 69 | 1013.5 |
| 20260507191537 | 56 | 32 | 4.0 | 10.0 | 0.00 | 0.06 | 0.06 | 67 | 1013.6 |
| 20260507191027 | 56 | 54 | 3.0 | 11.0 | 0.00 | 0.06 | 0.06 | 68 | 1013.4 |
| 20260507190527 | 56 | 31 | 5.0 | 11.0 | 0.00 | 0.06 | 0.06 | 68 | 1013.3 |
| 20260507190039 | 57 | 32 | 4.0 | 11.0 | 0.00 | 0.06 | 0.06 | 67 | 1013.3 |
| 20260507185528 | 56 | 39 | 6.0 | 12.0 | 0.00 | 0.06 | 0.06 | 67 | 1013.3 |
| 20260507185028 | 57 | 10 | 6.0 | 12.0 | 0.00 | 0.06 | 0.06 | 69 | 1013.4 |
| 20260507184540 | 56 | 56 | 5.0 | 10.0 | 0.00 | 0.06 | 0.06 | 68 | 1013.5 |
| 20260507184026 | 56 | 39 | 5.0 | 10.0 | 0.00 | 0.06 | 0.06 | 68 | 1013.8 |
| 20260507183530 | 56 | 44 | 4.0 | 8.0 | 0.00 | 0.06 | 0.06 | 65 | 1013.6 |
| 20260507183040 | 56 | 108 | 4.0 | 10.0 | 0.00 | 0.06 | 0.06 | 66 | 1013.6 |
| 20260507182527 | 56 | 21 | 5.0 | 10.0 | 0.00 | 0.06 | 0.06 | 66 | 1013.6 |
| 20260507182026 | 57 | 37 | 6.0 | 12.0 | 0.00 | 0.06 | 0.06 | 66 | 1013.6 |
| 20260507181536 | 56 | 82 | 4.0 | 12.0 | 0.00 | 0.06 | 0.06 | 65 | 1013.6 |
| 20260507181028 | 56 | 354 | 5.0 | 10.0 | 0.00 | 0.06 | 0.06 | 68 | 1013.5 |
| 20260507180526 | 56 | 96 | 5.0 | 10.0 | 0.00 | 0.06 | 0.06 | 71 | 1013.5 |
| 20260507180037 | 56 | 28 | 5.0 | 8.0 | 0.00 | 0.06 | 0.06 | 73 | 1013.5 |
| 20260507175526 | 55 | 86 | 4.0 | 10.0 | 0.00 | 0.06 | 0.06 | 72 | 1013.5 |
| 20260507175028 | 55 | 68 | 4.0 | 10.0 | 0.00 | 0.06 | 0.06 | 76 | 1013.5 |
| 20260507174536 | 56 | 35 | 4.0 | 10.0 | 0.00 | 0.06 | 0.06 | 74 | 1013.7 |
| 20260507174025 | 55 | 51 | 6.0 | 10.0 | 0.00 | 0.06 | 0.06 | 74 | 1013.6 |
| 20260507173526 | 56 | 35 | 4.0 | 10.0 | 0.00 | 0.06 | 0.06 | 75 | 1013.6 |
| 20260507173047 | 55 | 83 | 5.0 | 9.0 | 0.00 | 0.06 | 0.06 | 75 | 1013.6 |
| 20260507172542 | 55 | 27 | 4.0 | 9.0 | 0.00 | 0.06 | 0.06 | 74 | 1013.7 |
| 20260507172025 | 54 | 21 | 4.0 | 9.0 | 0.00 | 0.06 | 0.06 | 76 | 1013.7 |
| 20260507171538 | 54 | 34 | 4.0 | 9.0 | 0.00 | 0.06 | 0.06 | 77 | 1013.8 |
| 20260507171027 | 54 | 60 | 5.0 | 9.0 | 0.00 | 0.06 | 0.06 | 76 | 1013.7 |
| 20260507170527 | 53 | 20 | 5.0 | 12.0 | 0.00 | 0.06 | 0.06 | 77 | 1013.9 |
| 20260507170038 | 53 | 70 | 4.0 | 12.0 | 0.00 | 0.06 | 0.06 | 76 | 1013.9 |
| 20260507165526 | 53 | 61 | 6.0 | 11.0 | 0.00 | 0.06 | 0.06 | 75 | 1013.8 |
| 20260507165029 | 54 | 8 | 5.0 | 9.0 | 0.00 | 0.06 | 0.06 | 76 | 1013.9 |
| 20260507164538 | 53 | 83 | 4.0 | 9.0 | 0.00 | 0.06 | 0.06 | 76 | 1013.9 |
| 20260507164029 | 53 | 37 | 4.0 | 9.0 | 0.00 | 0.06 | 0.06 | 76 | 1014.0 |
| 20260507163526 | 52 | 1 | 4.0 | 8.0 | 0.00 | 0.06 | 0.06 | 79 | 1013.9 |
| 20260507163043 | 51 | 16 | 3.0 | 8.0 | 0.00 | 0.06 | 0.06 | 79 | 1014.0 |
| 20260507162525 | 51 | 101 | 4.0 | 8.0 | 0.00 | 0.06 | 0.06 | 80 | 1013.9 |
| 20260507162027 | 51 | 350 | 3.0 | 8.0 | 0.00 | 0.06 | 0.06 | 81 | 1014.0 |
| 20260507161551 | 50 | 1 | 4.0 | 8.0 | 0.00 | 0.06 | 0.06 | 79 | 1014.0 |
| 20260507161025 | 50 | 26 | 3.0 | 8.0 | 0.00 | 0.06 | 0.06 | 81 | 1014.2 |
| 20260507160525 | 50 | 19 | 4.0 | 9.0 | 0.00 | 0.06 | 0.06 | 81 | 1014.2 |
| 20260507160057 | 50 | 54 | 4.0 | 10.0 | 0.00 | 0.06 | 0.06 | 81 | 1014.0 |
| 20260507155528 | 50 | 37 | 5.0 | 10.0 | 0.00 | 0.06 | 0.06 | 82 | 1013.9 |
| 20260507155025 | 50 | 86 | 3.0 | 10.0 | 0.00 | 0.06 | 0.06 | 83 | 1013.9 |
| 20260507154537 | 49 | 71 | 4.0 | 10.0 | 0.00 | 0.06 | 0.06 | 83 | 1013.9 |
| 20260507154024 | 50 | 33 | 5.0 | 10.0 | 0.00 | 0.06 | 0.06 | 84 | 1013.9 |
| 20260507153524 | 50 | 32 | 4.0 | 8.0 | 0.00 | 0.06 | 0.06 | 83 | 1013.9 |
| 20260507153036 | 49 | 76 | 4.0 | 9.0 | 0.00 | 0.06 | 0.06 | 83 | 1013.7 |
| 20260507152523 | 49 | 98 | 5.0 | 9.0 | 0.00 | 0.06 | 0.06 | 82 | 1013.6 |
| 20260507152026 | 49 | 85 | 4.0 | 8.0 | 0.00 | 0.06 | 0.06 | 83 | 1013.6 |
| 20260507151536 | 49 | 74 | 3.0 | 7.0 | 0.00 | 0.06 | 0.06 | 85 | 1013.7 |
| 20260507151024 | 48 | 90 | 4.0 | 7.0 | 0.00 | 0.06 | 0.06 | 86 | 1013.6 |
| 20260507150524 | 48 | 91 | 4.0 | 6.0 | 0.00 | 0.06 | 0.06 | 87 | 1013.8 |
| 20260507150040 | 48 | 45 | 3.0 | 6.0 | 0.00 | 0.06 | 0.06 | 86 | 1014.0 |
| 20260507145523 | 48 | 44 | 3.0 | 6.0 | 0.00 | 0.06 | 0.06 | 86 | 1014.1 |
| 20260507145029 | 48 | 69 | 3.0 | 6.0 | 0.00 | 0.06 | 0.06 | 86 | 1014.0 |
| 20260507144548 | 48 | 70 | 2.0 | 6.0 | 0.00 | 0.06 | 0.06 | 85 | 1014.2 |
| 20260507144027 | 48 | 22 | 2.0 | 5.0 | 0.00 | 0.06 | 0.06 | 85 | 1014.2 |
| 20260507143524 | 48 | 61 | 2.0 | 4.0 | 0.00 | 0.06 | 0.06 | 85 | 1014.0 |
| 20260507143036 | 47 | 120 | 2.0 | 4.0 | 0.01 | 0.06 | 0.06 | 86 | 1014.0 |
| 20260507142525 | 47 | 60 | 2.0 | 4.0 | 0.01 | 0.06 | 0.06 | 86 | 1014.0 |
| 20260507142024 | 47 | 82 | 2.0 | 4.0 | 0.02 | 0.06 | 0.06 | 87 | 1013.9 |
| 20260507141544 | 47 | 0 | 0.0 | 5.0 | 0.02 | 0.06 | 0.06 | 88 | 1013.8 |
| 20260507141026 | 46 | 46 | 2.0 | 5.0 | 0.02 | 0.06 | 0.06 | 88 | 1013.7 |
| 20260507140524 | 46 | 43 | 3.0 | 6.0 | 0.02 | 0.06 | 0.06 | 88 | 1013.7 |
| 20260507140041 | 46 | 0 | 0.0 | 7.0 | 0.02 | 0.06 | 0.06 | 88 | 1013.6 |
| 20260507135524 | 46 | 126 | 2.0 | 7.0 | 0.02 | 0.06 | 0.06 | 89 | 1013.1 |
| 20260507135025 | 46 | 165 | 3.0 | 7.0 | 0.02 | 0.06 | 0.06 | 89 | 1013.2 |
| 20260507134537 | 46 | 188 | 2.0 | 5.0 | 0.02 | 0.06 | 0.06 | 89 | 1013.4 |
| 20260507134026 | 46 | 127 | 2.0 | 8.0 | 0.02 | 0.06 | 0.06 | 89 | 1013.4 |
| 20260507133525 | 46 | 133 | 3.0 | 8.0 | 0.02 | 0.06 | 0.06 | 89 | 1013.1 |
| 20260507133038 | 46 | 203 | 3.0 | 6.0 | 0.01 | 0.05 | 0.05 | 90 | 1013.1 |
| 20260507132524 | 46 | 185 | 3.0 | 6.0 | 0.01 | 0.05 | 0.05 | 90 | 1013.1 |
| 20260507132024 | 46 | 140 | 2.0 | 5.0 | 0.00 | 0.04 | 0.04 | 90 | 1013.2 |
| 20260507131537 | 46 | 0 | 1.0 | 4.0 | 0.00 | 0.04 | 0.04 | 90 | 1013.3 |
| 20260507131024 | 46 | 154 | 2.0 | 4.0 | 0.00 | 0.04 | 0.04 | 90 | 1013.3 |
| 20260507130526 | 46 | 195 | 1.0 | 3.0 | 0.00 | 0.04 | 0.04 | 90 | 1013.7 |
| 20260507130041 | 46 | 193 | 1.0 | 3.0 | 0.00 | 0.04 | 0.04 | 90 | 1013.7 |
| 20260507125523 | 46 | 0 | 0.0 | 6.0 | 0.00 | 0.04 | 0.04 | 90 | 1013.7 |
| 20260507125026 | 46 | 328 | 1.0 | 6.0 | 0.00 | 0.04 | 0.04 | 90 | 1013.7 |
| 20260507124540 | 46 | 359 | 3.0 | 5.0 | 0.00 | 0.04 | 0.04 | 90 | 1013.7 |
| 20260507124023 | 46 | 0 | 0.0 | 0.0 | 0.00 | 0.04 | 0.04 | 90 | 1013.3 |
| 20260507123524 | 46 | 0 | 0.0 | 0.0 | 0.01 | 0.04 | 0.04 | 90 | 1013.1 |
| 20260507123043 | 46 | 0 | 0.0 | 2.0 | 0.01 | 0.04 | 0.04 | 89 | 1013.0 |
| 20260507122525 | 46 | 0 | 0.0 | 5.0 | 0.01 | 0.04 | 0.04 | 90 | 1012.8 |
| 20260507122026 | 46 | 138 | 0.0 | 5.0 | 0.01 | 0.04 | 0.04 | 89 | 1012.7 |
| 20260507121538 | 46 | 169 | 2.0 | 5.0 | 0.01 | 0.04 | 0.04 | 89 | 1012.5 |
| 20260507121024 | 46 | 163 | 1.0 | 5.0 | 0.01 | 0.04 | 0.04 | 90 | 1012.6 |
| 20260507120523 | 46 | 226 | 2.0 | 5.0 | 0.01 | 0.04 | 0.04 | 90 | 1012.7 |
| 20260507120043 | 46 | 200 | 2.0 | 5.0 | 0.01 | 0.04 | 0.04 | 89 | 1012.6 |
| 20260507115523 | 46 | 210 | 2.0 | 4.0 | 0.01 | 0.04 | 0.04 | 89 | 1012.5 |
| 20260507115023 | 46 | 176 | 2.0 | 4.0 | 0.01 | 0.04 | 0.04 | 89 | 1012.4 |
| 20260507114545 | 46 | 245 | 1.0 | 3.0 | 0.01 | 0.04 | 0.04 | 89 | 1012.6 |
| 20260507114023 | 46 | 0 | 1.0 | 3.0 | 0.01 | 0.04 | 0.04 | 89 | 1012.6 |
| 20260507113523 | 46 | 188 | 1.0 | 3.0 | 0.00 | 0.03 | 0.03 | 89 | 1012.7 |
| 20260507113038 | 46 | 81 | 1.0 | 3.0 | 0.00 | 0.03 | 0.03 | 88 | 1013.1 |
| 20260507112524 | 46 | 0 | 0.0 | 4.0 | 0.00 | 0.03 | 0.03 | 88 | 1012.8 |
| 20260507112024 | 46 | 191 | 1.0 | 4.0 | 0.00 | 0.03 | 0.03 | 88 | 1012.7 |
| 20260507111545 | 46 | 223 | 2.0 | 4.0 | 0.01 | 0.03 | 0.03 | 88 | 1012.8 |
| 20260507111023 | 46 | 172 | 1.0 | 6.0 | 0.01 | 0.03 | 0.03 | 88 | 1012.7 |
| 20260507110523 | 46 | 0 | 2.0 | 6.0 | 0.02 | 0.03 | 0.03 | 88 | 1012.8 |
| 20260507110044 | 46 | 212 | 0.0 | 4.0 | 0.02 | 0.03 | 0.03 | 88 | 1012.9 |
| 20260507105525 | 46 | 0 | 1.0 | 5.0 | 0.03 | 0.03 | 0.03 | 88 | 1012.8 |
| 20260507105023 | 46 | 216 | 2.0 | 5.0 | 0.03 | 0.03 | 0.03 | 87 | 1012.8 |
| 20260507104544 | 47 | 222 | 0.0 | 4.0 | 0.03 | 0.03 | 0.03 | 87 | 1012.5 |
| 20260507104023 | 47 | 224 | 2.0 | 4.0 | 0.03 | 0.03 | 0.03 | 86 | 1012.8 |
| 20260507103526 | 47 | 0 | 0.0 | 4.0 | 0.03 | 0.03 | 0.03 | 85 | 1012.8 |
| 20260507103040 | 47 | 250 | 2.0 | 4.0 | 0.03 | 0.03 | 0.03 | 85 | 1013.3 |
| 20260507102525 | 47 | 203 | 1.0 | 7.0 | 0.03 | 0.03 | 0.03 | 85 | 1013.1 |
| 20260507102026 | 47 | 134 | 2.0 | 7.0 | 0.03 | 0.03 | 0.03 | 84 | 1013.0 |
| 20260507101543 | 47 | 68 | 3.0 | 7.0 | 0.02 | 0.02 | 0.02 | 84 | 1012.9 |
| 20260507101027 | 48 | 76 | 2.0 | 5.0 | 0.02 | 0.02 | 0.02 | 83 | 1013.0 |
| 20260507100525 | 48 | 50 | 2.0 | 3.0 | 0.01 | 0.01 | 0.01 | 81 | 1013.0 |
| 20260507100037 | 48 | 84 | 1.0 | 4.0 | 0.00 | 0.00 | 0.00 | 80 | 1013.0 |
| 20260507095524 | 48 | 45 | 1.0 | 9.0 | 0.00 | 0.00 | 0.00 | 79 | 1013.1 |
| 20260507095029 | 48 | 342 | 3.0 | 10.0 | 0.00 | 0.00 | 0.00 | 78 | 1013.3 |
| 20260507094541 | 49 | 300 | 4.0 | 10.0 | 0.00 | 0.00 | 0.00 | 78 | 1013.2 |
| 20260507094027 | 49 | 360 | 4.0 | 10.0 | 0.00 | 0.00 | 0.00 | 76 | 1013.2 |
| 20260507093523 | 49 | 359 | 4.0 | 14.0 | 0.00 | 0.00 | 0.00 | 75 | 1013.1 |
| 20260507093043 | 50 | 343 | 7.0 | 16.0 | 0.00 | 0.00 | 0.00 | 73 | 1013.3 |
| 20260507092523 | 50 | 343 | 8.0 | 18.0 | 0.00 | 0.00 | 0.00 | 72 | 1013.4 |
| 20260507092023 | 50 | 352 | 8.0 | 18.0 | 0.00 | 0.00 | 0.00 | 71 | 1013.3 |
| 20260507091540 | 50 | 350 | 8.0 | 16.0 | 0.00 | 0.00 | 0.00 | 69 | 1013.2 |
| 20260507091023 | 50 | 312 | 5.0 | 14.0 | 0.00 | 0.00 | 0.00 | 70 | 1013.0 |
| 20260507090525 | 50 | 333 | 5.0 | 14.0 | 0.00 | 0.00 | 0.00 | 70 | 1012.9 |
| 20260507090038 | 51 | 311 | 6.0 | 15.0 | 0.00 | 0.00 | 0.00 | 69 | 1012.9 |
| 20260507085527 | 51 | 316 | 7.0 | 15.0 | 0.00 | 0.00 | 0.00 | 68 | 1012.8 |
| 20260507085024 | 50 | 296 | 6.0 | 15.0 | 0.00 | 0.00 | 0.00 | 68 | 1012.6 |
| 20260507084541 | 49 | 315 | 3.0 | 10.0 | 0.00 | 0.00 | 0.00 | 65 | 1012.5 |
| 20260507084028 | 49 | 341 | 3.0 | 6.0 | 0.00 | 0.00 | 0.00 | 56 | 1012.7 |
| 20260507083526 | 48 | 358 | 1.0 | 6.0 | 0.00 | 0.00 | 0.00 | 52 | 1012.7 |
| 20260507083039 | 49 | 313 | 2.0 | 6.0 | 0.00 | 0.00 | 0.00 | 55 | 1013.0 |
| 20260507082524 | 49 | 335 | 1.0 | 9.0 | 0.00 | 0.00 | 0.00 | 54 | 1013.0 |
| 20260507082023 | 48 | 0 | 3.0 | 9.0 | 0.00 | 0.00 | 0.00 | 51 | 1012.9 |
| 20260507081538 | 48 | 349 | 3.0 | 8.0 | 0.00 | 0.00 | 0.00 | 50 | 1012.8 |
| 20260507081025 | 48 | 344 | 2.0 | 8.0 | 0.00 | 0.00 | 0.00 | 55 | 1012.7 |
| 20260507080526 | 48 | 146 | 1.0 | 3.0 | 0.00 | 0.00 | 0.00 | 52 | 1012.4 |
| 20260507080040 | 48 | 319 | 1.0 | 2.0 | 0.00 | 0.00 | 0.00 | 44 | 1012.5 |
| 20260507075525 | 48 | 319 | 1.0 | 4.0 | 0.00 | 0.00 | 0.00 | 42 | 1012.3 |
| 20260507075025 | 48 | 319 | 1.0 | 4.0 | 0.00 | 0.00 | 0.00 | 42 | 1012.3 |
| 20260507074539 | 49 | 351 | 2.0 | 4.0 | 0.00 | 0.00 | 0.00 | 40 | 1012.1 |
| 20260507074023 | 50 | 0 | 0.0 | 3.0 | 0.00 | 0.00 | 0.00 | 38 | 1011.7 |
| 20260507073525 | 50 | 61 | 1.0 | 4.0 | 0.00 | 0.00 | 0.00 | 36 | 1011.6 |
| 20260507073039 | 50 | 0 | 1.0 | 5.0 | 0.00 | 0.00 | 0.00 | 34 | 1011.8 |
| 20260507072523 | 50 | 98 | 2.0 | 7.0 | 0.00 | 0.00 | 0.00 | 34 | 1011.8 |
| 20260507072022 | 49 | 157 | 2.0 | 7.0 | 0.00 | 0.00 | 0.00 | 38 | 1011.8 |
| 20260507071536 | 49 | 169 | 2.0 | 7.0 | 0.00 | 0.00 | 0.00 | 36 | 1011.9 |
| 20260507071025 | 49 | 0 | 0.0 | 2.0 | 0.00 | 0.00 | 0.00 | 39 | 1011.9 |
| 20260507070523 | 49 | 0 | 0.0 | 3.0 | 0.00 | 0.00 | 0.00 | 39 | 1012.1 |
| 20260507070037 | 49 | 281 | 1.0 | 4.0 | 0.00 | 0.00 | 0.00 | 38 | 1012.1 |
| 20260507065523 | 50 | 334 | 2.0 | 4.0 | 0.00 | 0.00 | 0.00 | 38 | 1012.0 |
| 20260507065024 | 51 | 336 | 2.0 | 4.0 | 0.00 | 0.00 | 0.00 | 38 | 1011.9 |
| 20260507064550 | 51 | 0 | 0.0 | 2.0 | 0.00 | 0.00 | 0.00 | 34 | 1011.6 |
| 20260507064023 | 52 | 202 | 0.0 | 6.0 | 0.00 | 0.00 | 0.00 | 34 | 1011.5 |
| 20260507063523 | 52 | 201 | 1.0 | 6.0 | 0.00 | 0.00 | 0.00 | 32 | 1011.3 |
| 20260507063037 | 52 | 210 | 1.0 | 6.0 | 0.00 | 0.00 | 0.00 | 32 | 1011.3 |
| 20260507062523 | 52 | 215 | 2.0 | 6.0 | 0.00 | 0.00 | 0.00 | 32 | 1011.2 |
| 20260507062026 | 52 | 162 | 2.0 | 5.0 | 0.00 | 0.00 | 0.00 | 32 | 1011.1 |
| 20260507061538 | 52 | 174 | 1.0 | 8.0 | 0.00 | 0.00 | 0.00 | 32 | 1011.1 |
| 20260507061023 | 52 | 149 | 3.0 | 8.0 | 0.00 | 0.00 | 0.00 | 32 | 1011.2 |
| 20260507060525 | 52 | 196 | 2.0 | 13.0 | 0.00 | 0.00 | 0.00 | 32 | 1011.2 |
| 20260507060037 | 52 | 214 | 3.0 | 13.0 | 0.00 | 0.00 | 0.00 | 31 | 1011.5 |
| 20260507055524 | 52 | 117 | 5.0 | 13.0 | 0.00 | 0.00 | 0.00 | 30 | 1011.4 |
| 20260507055024 | 52 | 169 | 3.0 | 7.0 | 0.00 | 0.00 | 0.00 | 31 | 1011.5 |
| 20260507054540 | 51 | 183 | 3.0 | 7.0 | 0.00 | 0.00 | 0.00 | 32 | 1011.6 |
| 20260507054027 | 52 | 156 | 3.0 | 7.0 | 0.00 | 0.00 | 0.00 | 32 | 1011.9 |
| 20260507053523 | 51 | 134 | 4.0 | 7.0 | 0.00 | 0.00 | 0.00 | 30 | 1012.1 |
| 20260507053044 | 51 | 154 | 3.0 | 5.0 | 0.00 | 0.00 | 0.00 | 32 | 1012.5 |
| 20260507052523 | 50 | 139 | 2.0 | 5.0 | 0.00 | 0.00 | 0.00 | 32 | 1012.8 |
| 20260507052023 | 50 | 341 | 2.0 | 4.0 | 0.00 | 0.00 | 0.00 | 37 | 1012.8 |
| 20260507051538 | 50 | 305 | 0.0 | 5.0 | 0.00 | 0.00 | 0.00 | 35 | 1012.7 |
| 20260507051022 | 50 | 0 | 1.0 | 7.0 | 0.00 | 0.00 | 0.00 | 35 | 1012.6 |
| 20260507050523 | 50 | 25 | 3.0 | 7.0 | 0.00 | 0.00 | 0.00 | 36 | 1012.1 |
| 20260507050040 | 50 | 25 | 3.0 | 5.0 | 0.00 | 0.00 | 0.00 | 36 | 1011.9 |
| 20260507045527 | 51 | 24 | 1.0 | 5.0 | 0.00 | 0.00 | 0.00 | 34 | 1011.9 |
| 20260507045027 | 51 | 53 | 2.0 | 5.0 | 0.00 | 0.00 | 0.00 | 32 | 1011.9 |
| 20260507044537 | 52 | 31 | 2.0 | 5.0 | 0.00 | 0.00 | 0.00 | 30 | 1012.0 |